Flag for Australia Weather past 2 weeks in Wagga Wagga, New South Wales, Australia

Now
93 °F

Passing clouds.


Feels Like: 89 °F
Forecast: 62 / 92 °F
Wind: 8 mph from North

Location: Wagga Airport

Current Time: Oct 23, 2014 at 4:56:05 PM

Latest Report: Oct 23, 2014 at 4:00 PM


Visibility: N/A

Pressure: 29.92 "Hg

Humidity: 16%

Dew point: 41 °F

Location of Wagga WaggaLocation

Historic Weather in Wagga Wagga — Graph

°F

Wagga Wagga temperature yesterday

Maximum temperature yesterday: 84 °F (at 3:00 PM)
Minimum temperature yesterday: 50 °F (at 7:00 AM)
Average temperature yesterday: 68 °F

Past Weeks' High & Low Weather Summary

 TemperatureHumidityPressure
High90 °F (Oct 12, 1:00 PM)100% (Oct 17, 5:56 AM)30.39 "Hg (Oct 17, 5:56 AM)
Low37 °F (Oct 17, 4:00 AM)11% (Oct 11, 4:00 PM)29.68 "Hg (Oct 13, 4:00 AM)
Average61 °F57%30.08 "Hg
* Reported Oct 8 3:00 PM — Oct 23 3:00 PM, Wagga Wagga, Weather by CustomWeather, © 2014

Note: Actual official high and low records may vary slightly from our data, if they occured in-between our weather recording intervals... More about our weather records

Advertising

Wagga Wagga weather history for previous 24 hours

 ConditionsComfort  
Time TempWeatherWind HumidityBarometerVisibility
3:00 PM
Oct 23
90 °FPassing clouds.7 mph18%29.95 "HgN/A
2:00 PM90 °FScattered clouds.5 mph22%29.95 "HgN/A
1:00 PM88 °FPassing clouds.8 mph25%29.98 "HgN/A
12:00 PM86 °FSunny.8 mph31%30.01 "Hg10 mi
11:00 AM82 °FSunny.9 mph37%30.04 "Hg10 mi
10:00 AM77 °FSunny.8 mph44%30.04 "Hg10 mi
9:00 AM73 °FSunny.8 mph50%30.07 "Hg10 mi
8:00 AM66 °FSunny.8 mph64%30.07 "Hg10 mi
7:00 AM63 °FSunny.6 mph73%30.04 "Hg10 mi
6:00 AM61 °FClear.6 mph77%30.01 "Hg10 mi
5:00 AM64 °FClear.7 mph68%30.01 "HgN/A
4:00 AM66 °FClear.10 mph60%30.01 "HgN/A
3:00 AM63 °FClear.5 mph73%30.04 "HgN/A
2:00 AM63 °FClear.1 mph73%30.04 "HgN/A
1:00 AM66 °FClear.9 mph64%30.04 "HgN/A
12:00 AM66 °FClear.8 mph64%30.04 "HgN/A
11:00 PM
Oct 22
68 °FClear.8 mph60%30.04 "Hg10 mi
10:00 PM70 °FClear.8 mph57%30.07 "Hg10 mi
9:00 PM72 °FClear.7 mph53%30.04 "Hg10 mi
8:00 PM75 °FClear.10 mph44%30.04 "Hg10 mi
7:00 PM81 °FSunny.8 mph37%30.01 "Hg10 mi
6:00 PM84 °FSunny.6 mph29%30.04 "Hg10 mi
5:00 PM84 °FSunny.2 mph31%30.04 "Hg10 mi
4:00 PM84 °FPassing clouds.6 mph29%30.04 "HgN/A
Weather by CustomWeather, © 2014

See weather overviewHow to use our weather pages